FLOCK 2K-12

Last updated on Wed Feb 14 2018 16:20:54 GMT+0000 (Coordinated Universal Time)

1 42893U 17042BW 18044.69212513 .00006853 00000-0 19970-3 0 9997 2 42893 96.9934 307.6245 0012530 179.2652 180.8613 15.35601816 32680
UTC large
Height (km)
Speed (km/s)
/
Latitude / Longitude
Inclination (degrees)
Orbital Period (minutes)
Azimuth
Elevation
Range (km)
Doppler Factor

Next 0 passes for location: London (51.5072 / 0.1276)

Sorry there are no passes over London.